sat.trackr.live / text

‹ back to catalog

CUBEL

NORAD 47448 · 2021-006AM

PAYLOAD ACTIVE UNKNOWN

§ Identity

Operator
Country
GER
Launch date
2021-01-24
Launch site
AFETR
Launch vehicle
Mass (kg)
RCS (m²)

External: N2YO · Heavens-Above · Gunter

§ Orbital elements

Epoch: 2026-09-20T02:58:14.210976Z

Period
93.25 min
Inclination
97.2227°
Eccentricity
0.0006345
Mean motion
15.44186026 rev/d
Perigee alt
429.4 km
Apogee alt
438.1 km
Semi-major
6,811.9 km
B*
3.2122e-4
RAAN
312.9494°
Arg perigee
172.3517°
Mean anomaly
187.7829°
Rev number
31,439

§ Raw data

CUBEL1 47448U 21006AM  26263.12377559  .00014665  00000+0  32122-3 0  99982 47448  97.2227 312.9494 0006345 172.3517 187.7829 15.44186026314393

JSON: /api/v1/satellites/47448 · /tle

For live sub-satellite position, see the globe view (requires WebGL).

§ Visibility from observer

Set your observer location to see the next 7 days of passes ≥ 10°. The values pass through the URL so the page stays shareable.

No JS? Fill the form by hand. The geolocation button needs JavaScript.

§ Radio — SatNOGS DB

ModeDescriptionDownlinkUplink
FM DATAS 2.263 GHz
MSK AX.100 Mode 5 Mode U - MSK AX.100 4K8 400.575 MHz
MSK AX.100 Mode 5 UHFD 400.575 MHz

3 transmitters · refreshed weekly from db.satnogs.org